Date String (YYYY-MM-DD hh:mm:ss) UTC,Instrument flags,Ambient pressure (hPa),Sample flow (lpm),Bypass flow (lpm),Sample temperature (°C),Ambient temperature (°C),ASC tube jacket temperature (°C),LED temperature (°C),Box temperature (°C),Sample RH (%),Mass concentration (μg/m³),Mass concentration (μg/m³)
DateTimeUTC,F1_M11,P_M11,Q1_M11,Q2_M11,T1_M11,T2_M11,T3_M11,T4_M11,T5_M11,U1_M11,X0_M11,X2_M11
2021-08-15 00:00:00,,0831.1,5.00,0.00,29.1,26.8,00.0,38.0,30.7,27.7,0029.58,0015.04
2021-08-15 00:01:00,,0831.0,4.99,0.00,29.0,25.8,00.0,38.0,30.4,28.2,0028.51,0015.01
2021-08-15 00:02:00,,0831.0,5.01,0.00,28.9,25.9,00.0,38.0,30.4,29.1,0029.21,0015.02
2021-08-15 00:03:00,,0831.0,5.00,0.00,28.8,26.3,00.0,37.9,30.5,29.8,0029.13,0015.02
2021-08-15 00:04:00,,0831.0,4.99,0.00,28.9,26.7,00.0,37.9,30.6,29.8,0029.12,0015.06
2021-08-15 00:05:00,,0831.0,5.01,0.00,28.9,27.1,00.0,37.9,30.7,30.1,0029.58,0015.11
2021-08-15 00:06:00,,0831.0,4.99,0.00,29.0,27.5,00.0,37.9,30.9,29.8,0029.91,0015.11
2021-08-15 00:07:00,,0831.0,5.01,0.00,29.0,27.8,00.0,37.9,30.9,29.6,0029.66,0015.05
2021-08-15 00:08:00,,0831.0,5.00,0.00,29.1,28.1,00.0,38.0,31.0,29.1,0029.13,0014.98
2021-08-15 00:09:00,,0831.0,5.00,0.00,29.1,28.2,00.0,38.0,31.1,28.7,0028.84,0014.96
2021-08-15 00:10:00,,0831.0,5.00,0.00,29.1,27.0,00.0,38.0,30.7,28.6,0028.91,0015.00
2021-08-15 00:11:00,,0831.0,5.01,0.00,29.0,25.9,00.0,38.0,30.3,28.9,0029.10,0015.06
2021-08-15 00:12:00,,0831.0,4.99,0.00,28.9,25.8,00.0,38.0,30.4,29.4,0029.74,0015.04
2021-08-15 00:13:00,,0831.0,5.00,0.00,28.9,26.2,00.0,38.0,30.5,29.6,0029.51,0015.05
2021-08-15 00:14:00,,0831.0,4.99,0.00,28.8,26.6,00.0,37.9,30.6,29.5,0029.92,0015.10
2021-08-15 00:15:00,,0831.0,5.01,0.00,28.9,27.0,00.0,37.9,30.7,29.0,0028.92,0015.09
2021-08-15 00:16:00,,0831.0,5.01,0.00,28.9,27.4,00.0,37.9,30.8,28.7,0026.43,0015.00
2021-08-15 00:17:00,,0830.9,4.98,0.00,29.0,27.7,00.0,37.9,30.9,28.0,0025.79,0014.99
2021-08-15 00:18:00,,0830.9,5.01,0.00,29.1,28.0,00.0,38.0,31.0,27.8,0025.25,0015.04
2021-08-15 00:19:00,,0830.9,5.00,0.00,29.1,27.7,00.0,38.0,30.9,27.7,0025.27,0015.14
2021-08-15 00:20:00,,0830.9,5.00,0.00,29.0,26.3,00.0,38.0,30.5,27.6,0024.68,0015.19
2021-08-15 00:21:00,,0830.9,5.01,0.00,28.9,25.7,00.0,38.0,30.3,27.8,0024.92,0015.16
2021-08-15 00:22:00,,0830.9,5.00,0.00,28.8,26.0,00.0,37.9,30.4,27.6,0025.30,0015.14
2021-08-15 00:23:00,,0830.8,5.01,0.00,28.8,26.3,00.0,37.9,30.4,27.6,0024.26,0015.18
2021-08-15 00:24:00,,0830.9,4.99,0.00,28.8,26.8,00.0,37.9,30.6,26.9,0024.84,0015.31
2021-08-15 00:25:00,,0830.9,4.99,0.00,28.9,27.1,00.0,37.9,30.7,26.8,0024.50,0015.43
2021-08-15 00:26:00,,0830.9,5.00,0.00,28.9,27.5,00.0,37.9,30.8,27.4,0024.64,0015.48
2021-08-15 00:27:00,,0830.9,5.02,0.00,29.0,27.8,00.0,37.9,30.9,27.2,0025.34,0015.57
2021-08-15 00:28:00,,0830.9,4.99,0.00,29.0,28.0,00.0,37.9,31.0,26.9,0025.87,0015.64
2021-08-15 00:29:00,,0830.8,5.01,0.00,29.1,27.9,00.0,38.0,30.9,26.8,0025.31,0015.60
2021-08-15 00:30:00,,0830.8,5.00,0.00,29.0,26.5,00.0,38.0,30.5,26.7,0025.19,0015.59
2021-08-15 00:31:00,,0830.7,5.01,0.00,28.9,25.7,00.0,37.9,30.3,27.3,0025.95,0015.59
2021-08-15 00:32:00,,0830.7,4.99,0.00,28.8,25.9,00.0,37.9,30.3,28.0,0026.53,0015.69
2021-08-15 00:33:00,,0830.8,5.00,0.00,28.8,26.3,00.0,37.9,30.4,28.2,0026.52,0015.70
2021-08-15 00:34:00,,0830.8,4.99,0.00,28.8,26.7,00.0,37.9,30.5,28.4,0026.93,0015.76
2021-08-15 00:35:00,,0830.8,5.01,0.00,28.9,27.1,00.0,37.9,30.7,28.2,0027.76,0015.65
2021-08-15 00:36:00,,0830.8,4.98,0.00,28.9,27.4,00.0,37.9,30.8,28.4,0027.62,0015.53
2021-08-15 00:37:00,,0830.8,5.02,0.00,29.0,27.8,00.0,37.9,30.9,28.6,0027.55,0015.51
2021-08-15 00:38:00,,0830.8,5.00,0.00,29.0,28.0,00.0,37.9,31.0,28.8,0026.88,0015.46
2021-08-15 00:39:00,,0830.8,4.99,0.00,29.1,28.2,00.0,38.0,31.1,29.0,0026.41,0015.44
2021-08-15 00:40:00,,0830.8,5.00,0.00,29.2,28.2,00.0,38.0,31.1,29.4,0026.80,0015.43
2021-08-15 00:41:00,,0830.7,5.00,0.00,29.1,26.9,00.0,38.0,30.7,29.7,0027.64,0015.39
2021-08-15 00:42:00,,0830.7,5.01,0.00,29.0,25.8,00.0,38.0,30.3,29.8,0026.76,0015.39
2021-08-15 00:43:00,,0830.7,5.00,0.00,28.9,25.8,00.0,38.0,30.3,29.7,0025.40,0015.27
2021-08-15 00:44:00,,0830.6,5.00,0.00,28.8,26.2,00.0,37.9,30.4,29.8,0024.69,0015.22
2021-08-15 00:45:00,,0830.7,5.01,0.00,28.8,26.6,00.0,37.9,30.6,29.4,0024.51,0015.16
2021-08-15 00:46:00,,0830.7,4.98,0.00,28.9,27.1,00.0,37.9,30.7,29.4,0023.48,0015.10
2021-08-15 00:47:00,,0830.8,5.01,0.00,28.9,27.4,00.0,37.9,30.8,30.0,0024.09,0015.11
2021-08-15 00:48:00,,0830.8,4.99,0.00,29.0,27.7,00.0,37.9,30.9,30.5,0024.53,0015.15
2021-08-15 00:49:00,,0830.8,5.00,0.00,29.1,28.0,00.0,38.0,31.0,30.6,0024.76,0015.14
2021-08-15 00:50:00,,0830.7,5.00,0.00,29.1,28.2,00.0,38.0,31.1,30.7,0024.71,0015.07
2021-08-15 00:51:00,,0830.8,4.99,0.00,29.2,27.9,00.0,38.0,31.0,30.4,0024.44,0014.99
2021-08-15 00:52:00,,0830.8,5.01,0.00,29.1,26.4,00.0,38.0,30.6,30.3,0022.88,0014.89
2021-08-15 00:53:00,,0830.8,5.01,0.00,29.0,25.7,00.0,38.0,30.4,30.9,0022.87,0014.73
2021-08-15 00:54:00,,0830.8,4.98,0.00,28.9,25.9,00.0,38.0,30.4,31.2,0023.78,0014.61
2021-08-15 00:55:00,,0830.7,5.00,0.00,28.9,26.3,00.0,38.0,30.5,30.9,0024.35,0014.55
2021-08-15 00:56:00,,0830.7,5.01,0.00,28.9,26.8,00.0,37.9,30.6,30.9,0025.00,0014.45
2021-08-15 00:57:00,,0830.8,5.00,0.00,28.9,27.2,00.0,37.9,30.8,30.6,0025.34,0014.39
2021-08-15 00:58:00,,0830.7,5.00,0.00,29.0,27.5,00.0,37.9,30.9,29.8,0024.22,0014.30
2021-08-15 00:59:00,,0830.8,5.01,0.00,29.0,27.8,00.0,37.9,30.9,31.0,0024.57,0014.16
